Погода в Варгашах

Россия / Курганская область     55°22′31″N   65°48′56″E
темп.,
°C
ветер,
м/с
пор.,
м/с
влажн.,
%
обл.,
%
осадки,
мм/ч
давл.,
гПа
погр.,
м
8 марта, пн
пн823:00−10ссз61094100 2.9 1001418
02:00−11сз5109598 0.2 1005377
05:00−15зсз469796 0.3 1008118
08:00−19зюз469716 0.0 1009109
11:00−14зюз469226 0.0 1011289
14:00−11юз6108698 0.0 1012539
17:00−10ююз6128599 0.0 1011650
20:00−10ююз7159299 0.3 1009698
9 марта, вт
вт923:00−7юз8169199 0.5 1009799
02:00−7юз91690100 0.1 1008662
05:00−7юз71491100 0.1 1009489
08:00−6ююз81592100 0.1 1008588
11:00−6ююз91591100 0.5 1007756
14:00−5юз101590100 0.2 10061033
17:00−3зюз71475100 0.5 10081299
20:00−8з479031 0.0 1011119
10 марта, ср
ср1023:00−11юз339141 0.0 101321
02:00−11ююз2290100 0.0 101221
05:00−11юв2388100 0.0 101123
08:00−11юв4791100 0.0 1009158
11:00−8вюв4791100 0.0 1006283
14:00−6вюв4692100 0.0 1004441
17:00−6в4694100 0.2 1002454
20:00−7в4895100 0.8 1001354
11 марта, чт
чт1123:00−7в5895100 1.3 1000316
02:00−8вюв3696100 0.8 1000283
05:00−13юз71289100 1.9 1002372
08:00−18ююз4109586 0.1 1003234
11:00−15ююз579286 0.1 1004482
14:00−14юз4589100 0.1 1005591
17:00−14юз3493100 0.2 1006342
20:00−15ссз5995100 0.3 1007437
12 марта, пт
пт1223:00−17сз4996100 0.4 1009435
02:00−19сз4897100 0.2 1011392
05:00−24зсз489699 0.3 1014206
08:00−27зсз369751 0.0 1017137
11:00−22зсз479125 0.0 1019354
14:00−17зсз46791 0.0 1021788
17:00−16з368342 0.0 1021632
20:00−21юз349346 0.0 102347